Regional Weather Roundup
Issued by NWS Memphis, TN

Home | Current Version | Previous Version | Text Only | Print | Product List | Glossary On
Versions: 1 2 3 4 5 6 7 8 9 10 11 12 13 14 15 16 17 18 19 20 21 22 23 24 25 26 27 28 29 30 31 32 33 34 35 36 37 38 39 40 41 42 43 44 45 46 47 48 49 50
000
ASUS44 KMEG 221310
RWRMEG
MEMPHIS CWA HOURLY WEATHER ROUNDUP
NATIONAL WEATHER SERVICE MEMPHIS TN
800 AM CDT TUE AUG 22 2017

...WEST TENNESSEE...

CITY           SKY/WX    TMP DP  RH WIND       PRES   REMARKS
MEMPHIS INTL   MOSUNNY   79  74  84 VRB6      30.06R
NWS MEMPHIS      N/A     78 N/A N/A MISG        N/A
JACKSON        MOSUNNY   79  75  87 SW9       30.06R
COVINGTON      SUNNY     79  75  89 SW6       30.04S
SOMERVILLE     SUNNY     79  73  83 SW5       30.05R
BOLIVAR        SUNNY     79  75  89 S3        30.06R
LEXINGTON      MOSUNNY   77  73  88 S3        30.06R
SELMER         SUNNY     77  73  88 VRB5      30.07R
SAVANNAH       SUNNY     81  73  78 SW5       30.06S
DYERSBURG      SUNNY     79  74  84 VRB3      30.04R
UNION CITY     SUNNY     79  75  89 S7        30.02R
PARIS          SUNNY     79  73  83 SW7       30.03F
HUNTINGDON     SUNNY     79  73  83 SW6       30.04S


...EASTERN ARKANSAS...

CITY           SKY/WX    TMP DP  RH WIND       PRES   REMARKS
JONESBORO      MOSUNNY   78  77  96 SW9       30.02R
WEST MEMPHIS   SUNNY     78  75  90 S7        30.04R
NEWPORT        CLOUDY    77  75  93 S10       30.03R
WALNUT RIDGE   CLOUDY    77  73  88 SW7       30.02R
BLYTHEVILLE    SUNNY     77  75  93 SW8       30.03R
NW BLYTHEVILLE SUNNY     79  73  83 SW9       30.03
SEARCY         SUNNY     77  77 100 VRB6      30.05R
PINE BLUFF     SUNNY     76  73  91 SW3       30.06R
MONTICELLO     SUNNY     79  73  82 W8        30.06R


...NORTH MISSISSIPPI...

CITY           SKY/WX    TMP DP  RH WIND       PRES   REMARKS
TUPELO         SUNNY     78  72  81 CALM      30.07R
OXFORD         SUNNY     77  73  88 SW5       30.09R
BATESVILLE     SUNNY     76  75  95 S5        30.07R
OLIVE BRANCH   MOSUNNY  N/A N/A N/A SW6       30.05R
TUNICA           N/A     75  73  94 S3        30.06S
CLARKSDALE       N/A     79  79 100 SW3       30.06R
GREENWOOD      SUNNY     77  75  93 S5        30.07R
COLUMBUS       SUNNY     79  79 100 SE3       30.08R
STARKVILLE     SUNNY     73  73 100 CALM      30.10R
GOLDEN TRIANGL SUNNY     79  70  73 CALM      30.05R


...SOUTHEAST MISSOURI...

CITY           SKY/WX    TMP DP  RH WIND       PRES   REMARKS
KENNETT        SUNNY     81  77  89 SW8       30.01R FOG
MALDEN         MOSUNNY   77  73  88 S6        30.02R
WEST PLAINS    MOSUNNY   75  72  90 SW10      30.03S
POPLAR BLUFF   PTSUNNY   76  75  97 S7        30.00R
CAPE GIRARDEAU PTSUNNY   78  74  87 SW9       29.99R


...NORTHWEST ALABAMA...

CITY           SKY/WX    TMP DP  RH WIND       PRES   REMARKS
MUSCLE SHOALS  SUNNY     77  73  87 CALM      30.10R


...MIDDLE TENNESSEE...

CITY           SKY/WX    TMP DP  RH WIND       PRES   REMARKS
NASHVILLE      MOSUNNY   80  72  76 SW5       30.08R
CLARKSVILLE    SUNNY     78  72  81 SW5       30.04S
COLUMBIA       SUNNY     79  79 100 SW7       30.07R


...WESTERN KENTUCKY...

CITY           SKY/WX    TMP DP  RH WIND       PRES   REMARKS
PADUCAH        MOSUNNY   80  73  79 SW7       30.00R
FORT CAMPBELL  SUNNY     80  73  79 S9        30.03F


...CENTRAL ARKANSAS...

CITY           SKY/WX    TMP DP  RH WIND       PRES   REMARKS
LITTLE ROCK    MOSUNNY   77  76  96 SW3       30.05R


SKY/WX REPORTED AS FAIR MEANS FEW OR NO CLOUDS BELOW
12 THOUSAND FEET.





USA.gov is the U.S. government's official web portal to all federal, state and local government web resources and services.